AirNav   $300 off a Bose A20 aviation headset
 
 338 users online  

21F Jacksboro Municipal Airport
Jacksboro, Texas, USA

GOING TO JACKSBORO?


FAA INFORMATION EFFECTIVE 28 FEBRUARY 2019

Location

FAA Identifier: 21F
Lat/Long: 33-13-40.3000N / 098-08-47.2000W
33-13.671667N / 098-08.786667W
33.2278611 / -98.1464444
(estimated)
Elevation: 1062 ft. / 324 m (estimated)
Variation: 07E (1985)
From city: 1 mile NE of JACKSBORO, TX
Time zone: UTC -6 (UTC -5 during Daylight Saving Time)
Zip code: 76458

Airport Operations

Airport use: Open to the public
Activation date: 03/1968
Control tower: no
ARTCC: FORT WORTH CENTER
FSS: FORT WORTH FLIGHT SERVICE STATION
NOTAMs facility: FTW (NOTAM-D service available)
Attendance: IREG
Wind indicator: lighted
Segmented circle: yes
Lights: SS-SR
Beacon: white-green (lighted land airport)
Operates sunset to sunrise.

Airport Communications

CTAF: 122.9
WX AWOS-3 at XBP (16 nm E): 119.225 (940-683-8027)

Nearby radio navigation aids

VOR radial/distance  VOR name  Freq  Var
UKWr215/24.6BOWIE VORTAC117.1506E
MQPr337/31.0MILLSAP VORTAC117.7009E

 
NDB name  Hdg/Dist  Freq  Var  ID
GRAHAM071/18.037107EGHX --. .... -..-
SCOTLAND148/37.434405ESKB ... -.- -...

Airport Services

Fuel available: 100LL
Parking: tiedowns
Airframe service: MAJOR
Powerplant service: MAJOR
Bottled oxygen: NONE
Bulk oxygen: NONE

Runway Information

Runway 17/35

Dimensions: 3220 x 75 ft. / 981 x 23 m
Surface: asphalt, in excellent condition
Weight bearing capacity: 
Single wheel: 4.0
Runway edge lights: medium intensity
RUNWAY 17  RUNWAY 35
Latitude: 33-13.936885N33-13.406852N
Longitude: 098-08.765978W098-08.805815W
Elevation: 1022.0 ft.1062.0 ft.
Gradient: 1.2% UP1.0%
Traffic pattern: leftleft
Runway heading: 177 magnetic, 184 true357 magnetic, 004 true
Markings: basic, in good conditionbasic, in good condition
Obstructions: 61 ft. pole, 1393 ft. from runway, 19:1 slope to clear
6-8 FT BRUSH 0-200 FT FM THR 63 FT R. GND DROPS TO LAKE AT 140 FT,+12 FT BRUSH 39-200 FT FM THR; 108 FT LEFT.
17 ft. trees, 200 ft. from runway, 33 ft. left of centerline
6-15 FT BRUSH 0-200 FT FM THR 33-125 FT L, 10 FT TREE 71 FT FM THR; 108 FT RIGHT.

Airport Ownership and Management from official FAA records

Ownership: Publicly-owned
Owner: CITY OF JACKSBORO
112 WEST BELKNAP
JACKSBORO, TX 76458
Phone 940-567-6321
Manager: JACKY HALL
112 WEST BELKNAP
JACKSBORO, TX 76458
Phone 940-567-6321
MIKE SMITH, CITY ADMINISTRATOR, CITY OF JACKSBORO.

Airport Operational Statistics

Aircraft based on the field: 10
Single engine airplanes: 8
Multi engine airplanes: 1
Ultralights: 1
    
Aircraft operations: avg 29/week *
67% local general aviation
33% transient general aviation
* for 12-month period ending 08 February 2018

Additional Remarks

AIRPORT ACCESS GATE LOCKED. COMBINATION IS 0580.
+ 6 FT OPEN DRAINAGE DITCH NEAR RWY 18 THR AND 81 FT EAST OF CNTRLN ON BOTH SIDES OF TWY.
+5 FT OPEN DRAINAGE DITCH SOUTH OF RWY 18 THR AND 84 FT EAST OF CNTRLN ON BOTH SIDES OF TWY.
BIRDS ON AND INVPF OF ARPT.
+ 6 FT OPEN DRAINAGE DITCH NEAR THR AND 81 FT EAST OF CNTRLN ON BOTH SIDES OF TWY.
+5 FT OPEN DRAINAGE DITCH SOUTH OF THR AND 84 FT EAST OF CNTRLN ON BOTH SIDES OF TWY.
COURTESY CAR AVBL IN HNGR S-5. LOCK COMBINATION IS 6666.

Instrument Procedures

There are no published instrument procedures at 21F.

Some nearby airports with instrument procedures:

KXBP - Bridgeport Municipal Airport (16 nm E)
KRPH - Graham Municipal Airport (22 nm W)
F35 - Possum Kingdom Airport (23 nm SW)
KMWL - Mineral Wells Airport (27 nm S)
KLUD - Decatur Municipal Airport (28 nm E)
 
Loc | Ops | Rwys | IFR | FBO | Links
Com | Nav | Svcs | Stats | Notes
Area around 21F (Jacksboro Municipal Airport)
 
Road maps at: MapQuest Bing Google
 
Aerial photo
WARNING: Photo may not be current or correct
Aerial photo of 21F (Jacksboro Municipal Airport)
Photo courtesy of Civil Air Patrol
Photo taken 16-Sep-2006

Do you have a better or more recent aerial photo of Jacksboro Municipal Airport that you would like to share? If so, please send us your photo.

 
Sectional chart

 
Airport distance calculator
Flying to Jacksboro Municipal Airport? Find the distance to fly.

From to 21F

Sunrise and sunset
Times for 24-Mar-2019
 Local
(UTC-5)
 Zulu
(UTC)
Morning civil twilight07:0712:07
Sunrise07:3212:32
Sunset19:4600:46
Evening civil twilight20:1101:11

Current date and time
Zulu (UTC)  24-Mar-2019 07:02:02
Local (UTC-5)  24-Mar-2019 02:02:02
 
METAR
KXBP 
16nm E 
240655Z AUTO 19013G18KT 10SM CLR 18/15 A3001 RMK AO2 T01800148
KRPH 
22nm W 
240635Z AUTO 13004KT 10SM CLR 16/15 A2998 RMK AO2 T01610152
KMWL 
27nm S 
240653Z AUTO 14005KT 10SM OVC023 17/15 A3000 RMK AO2 SLP148 T01720150
KLUD 
28nm E 
118.22 940-927-2365
240655Z AUTO 17010KT 10SM BKN020 17/15 A3000 RMK AO2 T01710150
K0F2 
29nm NE 
240655Z AUTO 15008KT 10SM CLR 16/15 A2999 RMK AO2 T01590146
TAF
KAFW 
45nm E 
240520Z 2406/2506 18012KT P6SM SCT025 BKN035 FM240700 18015KT P6SM BKN025 FM241800 21015KT P6SM BKN035 FM250100 22010KT P6SM VCTS BKN040CB FM250500 35010KT P6SM BKN035
KNFW 
45nm SE 
2323/2423 17015G20KT 9999 FEW010 SCT020 BKN035 QNH2992INS BECMG 2404/2406 16015G20KT SCT010 BKN018 OVC025 QNH2996INS BECMG 2418/2420 21013KT FEW020 SCT040 QNH2990INS AUTOMATED SENSOR METWATCH 2323 TIL 2412 T18/2412Z T30/2421Z FN00199
KFTW 
46nm SE 
240520Z 2406/2506 17012KT P6SM BKN025 FM241800 21015KT P6SM BKN035 FM250100 22010KT P6SM VCTS BKN040CB FM250500 35010KT P6SM BKN035
KSPS 
49nm N 
240609Z 2406/2506 18010KT P6SM SCT080 FM241400 34010KT P6SM BKN250
NOTAMs
Click for the latest NOTAMs
NOTAMs are issued by the DoD/FAA and will open in a separate window not controlled by AirNav.

 

 
 

FBO, Fuel Providers, and Aircraft Ground Support

  
 Business Name 
 
 Contact 
 
 Services / Description 
 
Fuel Prices
 
Comments
  
City of Jacksboro (self-serve fuel) 940-567-6321
940-229-8084
[web site]
[email]
Airport management, Aviation fuel, Courtesy transportation

More info about City of Jacksboro (self-serve fuel)
Avfuel
100LL
SS $3.95 
 Updated 13-Mar-2019
 
   write
SS=Self service
Update Fuel Prices
 

Aviation Businesses, Services, and Facilities

  
 Business Name 
 
 Contact 
 
 Services / Description 
 
Distance
 
Comments
  
Mike's Aircraft Services 940-452-5958
[web site]
[email]
Aircraft maintenance

More info about Mike's Aircraft Services
on airport  
   write
 

Would you like to see your business listed on this page?

 If your business provides an interesting product or service to pilots, flight crews, aircraft, or users of the Jacksboro Municipal Airport, you should consider listing it here.  To start the listing process, click on the button below
 
Add a business
 

Other Pages about Jacksboro Municipal Airport

Update a link
 
Copyright © AirNav, LLC. All rights reserved. Privacy Policy  Contact